User: anonymous   Login
Location: Étouvelles
(49.5207°N, 3.5808°E)
Time: 18:01:44
(UTC+00:00)
Language:

CSL-04 Debris - Orbit

View from above orbital plane
View from above orbital plane
View from above satellite
View from above satellite

Ground track
Ground track

The orbit data is extracted from the following two-line orbital elements,

1 25733U 99025D   24285.84789174  .00003581  00000-0  17685-2 0  9990
2 25733  98.7634 328.5826 0015535 139.2182 221.0159 14.17970155313061
Epoch (UTC): 11 October 2024 20:20:57
Eccentricity: 0.0015535
inclination: 98.7634°
perigee height: 821 km
apogee height: 843 km
right ascension of ascending node: 328.5826°
argument of perigee: 139.2182°
revolutions per day: 14.17970155
mean anomaly at epoch: 221.0159°
orbit number at epoch: 31306

The dashed part of the orbit path shows where the satellite is in the earth's shadow,  

DLR